CAPE
0 0 0 0 0 0 0 0 0 0 0 0 0 0 0 0 0 0 0 0 0 0 0 0 0 0 0 0 0 5 0 0 0 187 437 635 771 694 741 821 904 1020 1028 925
0 0 0 0 0 0 0 0 0 0 0 0 0 0 0 0 0 0 0 0 0 0 0 0 0 0 0 0 0 0 0 0 11 285 654 801 817 482 823 953 1057 1059 1019 1052
0 0 0 0 0 0 0 0 0 0 0 0 0 0 0 0 0 0 0 0 0 0 0 0 0 0 0 0 0 0 0 0 43 304 601 675 651 713 872 1069 1138 1138 1102 1133
1 0 0 0 0 0 1 0 0 0 0 0 0 0 0 0 0 0 0 0 0 0 0 0 0 0 0 0 0 0 0 206 266 522 637 956 1071 1209 1192 1161 1253 1292 1245 1232
0 0 0 1 0 1 1 0 0 0 0 0 0 0 0 0 0 0 0 0 0 0 0 0 0 0 0 0 0 0 330 673 630 657 832 1131 1256 1131 1094 1139 1330 1373 1380 1341
0 0 0 2 5 0 1 0 0 0 0 0 0 0 0 0 0 0 0 0 0 0 0 0 0 0 0 0 0 369 878 1011 822 863 956 1179 1184 946 1067 1151 1155 867 858 963
0 0 0 0 0 0 0 11 11 3 1 0 0 0 0 0 0 0 0 0 0 0 0 0 0 0 0 0 153 834 1165 1130 935 859 855 1016 996 1067 1057 957 884 807 878 957
12 33 4 0 0 0 0 0 2 0 0 0 0 0 0 0 0 0 0 0 0 0 0 0 0 0 0 0 485 1023 1302 1143 976 876 791 768 875 823 838 852 813 867 931 1047
67 35 55 11 1 0 0 0 0 0 0 0 0 0 0 0 0 0 0 0 0 0 0 0 0 0 0 86 854 1243 1269 1145 983 837 725 723 677 652 627 750 872 820 783 638
35 27 6 7 28 0 0 0 0 0 0 0 0 0 0 0 0 0 0 0 0 0 0 34 6 0 26 535 1105 1230 1181 1087 779 649 563 473 530 581 589 634 612 638 598 457
43 16 12 10 0 14 11 5 2 0 0 0 0 0 0 0 0 0 0 0 0 0 0 150 38 4 293 780 1127 1127 926 635 487 517 457 449 418 431 520 604 504 518 444 321
38 123 38 0 0 0 0 0 1 11 0 0 0 0 0 0 0 0 0 0 0 0 7 125 23 36 448 933 1035 934 663 478 389 357 384 422 394 410 525 463 472 450 340 233
88 42 41 7 136 36 3 2 0 0 0 0 0 0 0 0 0 0 0 0 0 0 0 195 37 126 222 850 909 738 481 322 258 212 264 366 368 409 415 436 403 310 232 187
151 60 28 23 7 5 5 0 0 0 0 1 0 0 0 0 0 0 0 0 0 0 0 229 158 238 343 807 670 538 349 248 207 184 219 296 286 312 478 427 322 261 280 222
70 60 41 7 8 5 1 0 0 0 0 5 0 0 0 0 0 0 0 0 0 0 0 4 401 276 836 851 643 451 290 176 85 8 78 233 209 276 354 339 135 203 246 304
50 30 30 11 0 0 0 0 0 0 0 0 0 0 0 0 0 0 0 0 0 0 0 0 560 871 879 832 672 445 277 117 36 42 74 111 164 221 349 427 231 294 275 418
46 34 15 1 0 1 0 0 0 0 0 0 0 0 0 0 0 0 0 0 0 0 0 14 554 900 982 808 677 524 313 70 29 96 123 113 208 237 298 323 285 358 489 637
25 26 35 15 11 0 0 40 28 22 29 42 54 4 0 0 0 0 0 0 0 0 0 27 656 941 1036 826 707 596 250 58 14 77 90 119 198 217 274 373 365 318 418 472
11 14 26 7 12 0 0 5 10 25 7 2 20 0 0 0 0 0 0 0 0 0 0 217 772 981 1052 855 736 500 175 29 46 61 115 139 198 208 324 427 386 227 272 188
10 17 9 14 21 9 9 4 6 16 19 20 4 48 13 9 35 0 0 0 0 13 211 526 859 987 966 843 570 496 242 67 128 159 188 197 227 275 379 441 281 180 302 142
35 22 9 10 26 32 3 7 6 48 12 2 5 3 5 35 3 0 0 0 0 0 164 719 884 966 949 772 589 335 174 168 188 214 233 285 334 427 515 421 309 238 151 46
52 58 32 52 18 31 12 19 9 35 2 8 6 30 23 14 4 1 0 0 0 10 414 764 836 902 841 683 628 260 274 233 204 257 285 344 491 356 397 439 328 282 131 50
44 55 75 7 22 26 39 32 22 29 7 11 9 14 13 5 9 2 0 0 10 227 628 762 838 755 499 637 722 435 339 284 200 306 419 507 515 471 484 478 145 20 52 28
8 30 70 59 63 38 25 26 18 53 23 19 8 11 7 11 3 1 0 3 124 391 740 772 706 542 470 565 627 499 427 163 230 404 532 535 579 499 466 292 38 46 10 15
19 14 66 50 36 16 17 27 58 20 18 30 12 5 10 12 4 1 0 22 196 602 777 682 615 626 510 430 389 443 190 179 314 432 521 586 523 555 140 8 3 17 13 29
7 26 45 44 42 11 10 39 38 30 3 5 10 9 2 2 0 0 0 534 603 669 727 447 569 615 453 351 250 61 105 185 384 451 514 564 517 440 43 0 0 0 1 0
CIN
-0 -0 -0 -0 -0 -0 -0 -0 -0 -0 -0 -0 -0 -0 -0 -0 -0 -0 -0 -0 -0 -0 -0 -0 -0 -0 -0 -0 -0 -449 -0 -0 -0 -677 -618 -604 -568 -580 -527 -475 -407 -351 -308 -291
-0 -0 -0 -0 -0 -0 -0 -0 -0 -0 -0 -0 -0 -0 -0 -0 -0 -0 -0 -0 -0 -0 -0 -0 -0 -0 -0 -0 -0 -0 -0 -0 -438 -612 -615 -556 -555 -634 -487 -398 -355 -327 -284 -244
-0 -0 -0 -0 -0 -0 -0 -0 -0 -0 -0 -0 -0 -0 -0 -0 -0 -0 -0 -0 -0 -0 -0 -0 -0 -0 -0 -0 -0 -0 -0 -0 -729 -664 -629 -604 -584 -538 -441 -356 -321 -279 -242 -204
-0 -0 -0 -0 -0 -0 -0 -0 -0 -0 -0 -0 -0 -0 -0 -0 -0 -0 -0 -0 -0 -0 -0 -0 -0 -0 -0 -0 -0 -0 -0 -632 -688 -662 -583 -509 -338 -317 -318 -319 -259 -210 -183 -148
-0 -0 -0 -8 -0 -0 -1 -0 -0 -0 -0 -0 -0 -0 -0 -0 -0 -0 -0 -0 -0 -0 -0 -0 -0 -0 -0 -0 -0 -0 -573 -569 -617 -624 -528 -421 -345 -351 -347 -296 -216 -163 -123 -85
-0 -0 -0 -3 -11 -0 -0 -0 -0 -0 -0 -0 -0 -0 -0 -0 -0 -0 -0 -0 -0 -0 -0 -0 -0 -0 -0 -0 -0 -518 -490 -485 -540 -534 -490 -395 -375 -384 -301 -250 -208 -222 -191 -119
-1 -0 -0 -0 -0 -0 -0 -0 -0 -0 -0 -0 -0 -0 -0 -0 -0 -0 -0 -0 -0 -0 -0 -0 -0 -0 -0 -0 -552 -439 -425 -444 -477 -469 -433 -376 -361 -319 -272 -253 -213 -196 -132 -56
-0 -0 -18 -0 -0 -0 -0 -0 -0 -0 -0 -0 -0 -0 -0 -0 -0 -0 -0 -0 -0 -0 -0 -0 -0 -0 -0 -0 -504 -396 -384 -398 -409 -391 -380 -369 -326 -270 -235 -217 -178 -131 -61 -28
-0 -6 -18 -18 -2 -6 -0 -0 -0 -0 -0 -0 -0 -0 -0 -0 -0 -0 -0 -0 -0 -0 -0 -0 -0 -0 -0 -626 -440 -358 -351 -345 -351 -356 -365 -342 -313 -277 -245 -205 -133 -91 -56 -39
-8 -2 -14 -36 -29 -0 -0 -0 -0 -0 -0 -0 -0 -0 -0 -0 -0 -0 -0 -0 -0 -0 -0 -314 -87 -0 -355 -501 -372 -323 -318 -319 -353 -364 -350 -334 -285 -243 -217 -164 -124 -73 -43 -44
-5 -6 -5 -9 -0 -6 -3 -0 -2 -0 -0 -0 -0 -0 -0 -0 -0 -0 -0 -0 -0 -0 -0 -470 -636 -235 -569 -404 -314 -299 -318 -364 -388 -354 -321 -287 -260 -227 -167 -101 -81 -55 -46 -54
-2 -0 -8 -0 -0 -0 -0 -0 -6 -0 -0 -0 -0 -0 -0 -0 -0 -0 -0 -0 -0 -0 -55 -434 -587 -700 -444 -313 -279 -280 -317 -339 -356 -337 -283 -243 -219 -174 -116 -90 -55 -41 -44 -47
-0 -3 -4 -27 -13 -47 -4 -6 -0 -0 -0 -0 -0 -0 -0 -0 -0 -0 -0 -0 -0 -0 -0 -342 -574 -516 -467 -261 -235 -256 -307 -347 -346 -327 -289 -224 -179 -123 -86 -63 -42 -39 -40 -26
-0 -2 -4 -4 -0 -3 -0 -0 -0 -0 -0 -0 -0 -0 -0 -0 -0 -0 -0 -0 -0 -0 -0 -267 -379 -382 -353 -210 -239 -267 -309 -329 -324 -305 -259 -194 -144 -97 -37 -27 -24 -21 -11 -2
-0 -21 -22 -0 -0 -0 -0 -0 -0 -0 -0 -0 -0 -0 -0 -0 -0 -0 -0 -0 -0 -0 -0 -38 -249 -349 -175 -184 -224 -245 -272 -298 -326 -354 -256 -151 -116 -64 -20 -10 -48 -14 -3 -1
-0 -75 -63 -0 -0 -0 -0 -0 -0 -0 -0 -0 -0 -0 -0 -0 -0 -0 -0 -0 -0 -0 -0 -0 -200 -159 -147 -176 -191 -213 -249 -275 -303 -277 -208 -147 -92 -46 -4 -1 -4 -1 -3 -4
-0 -0 -0 -0 -0 -0 -0 -0 -0 -0 -0 -0 -0 -0 -0 -0 -0 -0 -0 -0 -0 -0 -0 -155 -200 -148 -123 -152 -159 -171 -215 -277 -251 -194 -147 -116 -58 -22 -2 -0 -0 -0 -5 -12
-0 -0 -0 -0 -0 -0 -0 -7 -15 -7 -2 -0 -0 -0 -0 -0 -0 -0 -0 -0 -0 -0 -0 -140 -165 -150 -117 -121 -120 -133 -206 -244 -236 -154 -126 -91 -49 -22 -2 -0 -0 -4 -13 -14
-0 -0 -0 -0 -0 -0 -0 -0 -0 -0 -0 -2 -2 -0 -0 -0 -0 -0 -0 -0 -0 -0 -0 -247 -135 -127 -107 -109 -114 -143 -198 -230 -165 -116 -89 -72 -40 -28 -0 -0 -1 -7 -7 -21
-0 -0 -0 -0 -0 -0 -0 -0 -0 -0 -0 -2 -0 -0 -0 -0 -0 -0 -0 -0 -0 -255 -209 -151 -130 -122 -110 -107 -141 -128 -148 -168 -80 -43 -47 -48 -33 -8 -1 -8 -11 -8 -1 -7
-0 -0 -0 -0 -0 -0 -0 -5 -0 -0 -0 -0 -0 -0 -3 -0 -0 -0 -0 -0 -0 -0 -256 -128 -129 -132 -122 -136 -130 -146 -148 -108 -52 -31 -43 -33 -13 -4 -4 -11 -4 -4 -2 -21
-0 -0 -0 -0 -0 -0 -1 -0 -0 -0 -0 -0 -0 -1 -6 -0 -0 -0 -0 -0 -0 -294 -185 -147 -113 -113 -126 -133 -107 -154 -104 -65 -43 -37 -35 -25 -7 -6 -9 -4 -0 -0 -8 -11
-0 -0 -0 -0 -0 -5 -0 -0 -0 -0 -1 -0 -0 -0 -0 -0 -0 -0 -0 -0 -249 -180 -118 -104 -93 -131 -193 -125 -68 -85 -67 -64 -53 -33 -18 -21 -13 -10 -6 -1 -30 -24 -3 -25
-0 -4 -0 -0 -7 -0 -0 -0 -0 -0 -0 -0 -0 -0 -0 -0 -0 -0 -0 -95 -194 -134 -84 -75 -110 -173 -186 -131 -76 -51 -45 -107 -51 -19 -20 -27 -21 -19 -8 -4 -72 -9 -36 -16
-2 -4 -0 -0 -0 -0 -0 -0 -0 -0 -0 -0 -0 -0 -0 -0 -0 -0 -0 -189 -163 -82 -91 -129 -138 -133 -148 -148 -112 -76 -124 -105 -45 -23 -24 -22 -27 -18 -90 -101 -16 -25 -23 -6
-22 -1 -0 -0 -0 -0 -0 -0 -1 -0 -0 -0 -0 -0 -0 -0 -0 -0 -0 -25 -53 -83 -121 -204 -127 -101 -130 -151 -138 -217 -160 -119 -45 -38 -25 -19 -28 -50 -182 -0 -0 -0 -0 -0
Wind_Speed
6 9 20 24 24 23 16 20 21 19 13 16 25 31 26 19 21 22 20 20 19 19 16 14 12 11 12 11 9 8 8 4 6 6 7 7 8 7 7 7 11 12 11 12
6 17 18 16 17 23 22 14 14 8 6 11 19 25 22 13 17 20 21 22 20 19 17 15 13 13 12 11 11 9 8 6 8 7 5 3 6 6 7 7 8 9 11 12
17 14 9 17 19 19 24 22 10 5 3 9 9 20 21 18 19 20 20 20 19 20 19 17 17 16 13 13 12 9 8 8 9 10 7 6 7 6 6 7 7 8 10 11
14 14 15 12 21 18 19 17 18 14 7 9 5 14 17 16 18 17 18 19 20 17 18 19 19 19 16 15 9 9 7 7 10 13 10 11 6 8 5 7 7 8 10 10
12 10 16 19 12 16 13 10 15 17 16 12 18 10 16 15 20 23 22 20 20 21 22 23 22 19 17 13 10 7 6 8 10 12 10 9 8 6 8 7 10 8 8 8
15 9 5 7 17 12 18 11 5 5 7 13 17 12 16 19 20 19 19 18 16 16 17 19 19 16 15 10 7 6 8 9 10 10 11 11 12 11 10 10 9 7 6 6
12 17 9 8 5 5 9 19 9 11 11 16 9 13 18 7 4 7 3 6 12 14 11 12 13 12 12 10 7 7 10 10 10 10 10 11 12 13 13 12 9 9 7 5
7 10 7 11 14 12 13 13 10 15 11 13 11 14 8 13 15 12 8 6 9 12 11 12 13 12 9 8 9 10 12 12 12 11 11 10 11 8 8 9 8 6 6 6
5 3 15 3 1 12 8 10 6 3 1 7 11 16 16 17 17 16 4 8 13 16 15 15 15 10 8 9 11 13 14 13 13 13 11 10 9 10 9 9 8 7 7 6
4 5 6 13 8 7 6 8 10 6 7 8 9 16 9 7 6 2 2 12 16 18 17 16 12 5 6 10 12 13 14 15 14 13 11 10 10 10 10 9 9 8 7 7
7 4 3 5 3 3 5 6 7 7 9 5 3 4 3 7 10 9 9 12 15 18 17 14 10 3 6 11 13 14 14 15 14 13 11 11 10 10 10 8 8 8 8 8
6 5 5 5 5 3 7 3 5 9 19 11 7 6 5 11 9 10 13 17 19 17 15 11 7 1 6 11 13 14 14 14 14 13 13 11 10 9 9 8 8 8 8 8
8 2 6 2 6 4 1 2 6 6 5 15 15 8 9 4 10 14 18 20 20 17 16 9 4 2 7 11 13 13 14 15 14 13 13 11 10 9 8 8 8 8 9 8
10 5 9 8 7 7 8 8 7 6 9 14 21 20 25 21 22 22 21 20 20 17 15 8 1 4 8 11 12 13 14 14 14 13 13 11 10 8 7 8 8 8 8 8
5 8 10 12 14 14 16 17 16 16 17 15 16 20 23 21 18 20 22 20 21 20 15 12 5 7 10 11 12 13 14 13 13 13 12 10 9 8 8 8 8 7 8 7
5 5 3 10 15 17 18 19 19 22 19 24 24 25 20 27 24 25 23 21 20 18 17 16 8 11 13 13 13 14 14 13 13 12 11 10 9 8 8 7 8 8 8 7
4 5 4 6 4 9 12 18 22 19 17 18 22 19 18 25 25 21 21 18 19 18 19 17 9 13 13 14 14 15 14 13 12 11 10 10 9 9 8 8 9 8 7 7
4 6 5 5 5 6 4 5 5 11 19 17 18 20 22 24 24 21 17 20 21 20 20 16 9 13 14 15 15 14 14 13 12 11 10 10 9 9 8 8 8 7 5 6
15 6 3 4 6 10 13 5 5 5 13 16 18 13 18 19 19 23 21 20 21 22 18 13 9 13 15 16 16 15 14 13 12 10 10 10 10 10 9 9 8 6 7 7
8 11 6 4 5 5 3 3 5 9 10 6 14 10 12 12 11 17 10 12 17 16 13 11 11 14 16 16 16 16 15 14 12 11 10 10 10 10 9 9 8 6 6 6
1 3 10 9 6 5 0 5 4 6 5 16 13 16 14 11 12 15 17 21 19 17 16 10 13 15 16 17 17 16 15 14 12 10 10 10 10 9 9 9 7 7 6 6
3 5 2 3 6 1 3 9 4 6 10 14 16 11 12 13 15 15 17 18 19 16 11 14 13 14 15 17 17 16 15 13 11 10 11 10 10 8 8 9 7 7 7 7
3 3 4 3 4 13 13 14 10 15 15 15 16 15 13 17 15 15 15 16 14 12 10 13 14 15 15 16 16 16 14 12 12 11 11 11 10 8 9 9 8 6 7 6
4 6 4 10 3 11 19 6 12 12 12 14 14 14 15 14 15 16 15 12 10 10 12 12 15 16 16 15 16 15 13 12 12 12 11 10 10 9 8 6 6 6 6 6
5 7 11 8 10 17 6 12 10 9 13 11 12 13 14 13 14 13 12 11 10 11 12 14 15 16 17 16 14 14 14 13 12 12 11 10 8 8 8 6 4 5 5 4
3 5 5 7 16 11 14 15 14 9 13 14 14 15 12 10 12 13 9 8 8 13 13 12 14 15 16 16 15 14 14 14 13 12 10 9 9 8 7 7 4 9 5 6
Wind_Direction
190 220 224 225 228 245 263 248 242 248 228 212 223 242 245 239 254 258 261 267 269 272 278 283 279 271 267 265 266 260 294 269 188 185 188 195 194 186 190 191 196 193 196 196
213 233 247 255 254 237 241 252 249 230 226 229 238 248 249 244 251 254 259 263 269 275 276 278 277 274 270 272 267 274 269 244 204 202 187 166 153 181 181 190 189 187 188 190
242 257 244 233 245 232 229 233 215 223 238 250 275 260 251 245 249 254 254 260 264 262 272 273 273 269 272 264 266 277 270 231 204 193 159 125 123 115 164 180 171 181 186 183
246 241 236 254 225 236 234 223 228 239 260 232 201 269 244 242 252 249 256 256 259 264 258 259 261 264 257 266 276 276 266 215 194 183 180 173 172 157 173 169 161 164 175 176
229 246 224 219 235 214 248 204 206 213 229 251 240 268 260 251 257 256 257 265 271 265 262 259 262 262 266 266 271 261 222 194 178 179 181 172 166 137 140 144 146 150 155 163
269 265 291 255 216 211 212 228 252 234 225 233 233 238 268 253 257 259 260 264 270 278 269 262 263 265 258 256 245 207 181 166 164 165 166 167 152 138 135 142 142 142 143 151
233 229 245 257 241 166 181 186 194 217 214 237 201 217 243 246 288 236 258 310 293 296 275 272 273 262 254 227 209 178 163 150 153 156 157 151 140 141 145 152 151 152 147 154
292 219 226 206 231 209 199 203 207 218 207 226 202 227 241 237 267 277 285 300 300 316 313 298 293 278 254 211 179 168 152 144 151 150 142 135 135 141 147 146 147 144 151 154
338 324 324 115 228 205 164 204 227 277 68 219 193 249 280 262 274 270 259 10 352 339 334 327 316 285 237 181 168 159 148 145 146 141 134 134 135 142 138 136 138 140 140 144
329 291 145 306 315 184 233 183 193 205 201 211 210 244 236 117 80 332 124 11 353 348 347 344 339 311 180 159 152 151 148 144 140 134 134 134 139 136 133 137 135 143 143 150
327 290 170 250 196 340 192 215 224 249 237 248 242 201 231 237 99 57 31 4 354 352 352 352 345 347 161 148 147 145 141 139 136 133 131 133 131 129 130 131 140 141 145 147
347 307 284 263 293 298 286 292 283 234 217 237 285 279 108 112 80 23 356 351 354 353 355 351 341 353 153 149 146 144 140 138 133 130 130 130 133 134 133 136 141 147 143 146
358 351 308 287 152 99 213 203 247 255 283 246 236 220 182 250 305 339 341 340 344 345 350 358 339 185 155 151 148 144 143 139 136 136 135 138 139 141 141 140 143 147 143 151
301 247 255 274 330 330 294 290 279 270 254 251 243 259 268 285 303 319 324 332 330 329 339 336 236 183 166 155 148 147 144 143 143 141 144 145 146 146 145 142 147 152 157 159
255 246 234 259 271 276 272 273 271 253 253 254 265 258 271 283 302 305 309 314 316 317 320 332 242 191 171 161 154 152 150 150 149 146 148 145 143 140 140 143 152 154 161 158
244 270 241 257 265 264 267 261 256 254 255 255 259 261 268 283 283 283 288 302 308 309 312 317 228 199 179 170 163 158 154 154 155 150 146 143 142 145 149 155 160 159 163 157
248 234 221 262 314 311 267 248 244 253 260 262 261 267 258 263 268 270 283 290 294 298 301 305 235 200 184 172 167 166 158 156 160 158 151 149 150 150 154 158 160 157 172 144
234 224 240 279 303 250 65 32 317 306 282 279 279 255 252 251 261 271 276 280 283 283 286 299 225 198 182 172 169 162 158 161 161 161 157 154 158 152 159 157 150 151 159 154
213 206 239 242 221 282 286 32 341 311 283 281 278 260 240 251 269 268 262 270 280 271 271 280 215 190 175 172 163 163 164 164 165 167 164 163 158 159 160 154 140 143 147 141
223 223 211 207 251 256 160 270 3 299 270 27 346 289 241 239 246 263 288 309 306 296 279 256 193 181 172 170 164 163 168 171 177 180 172 165 164 164 161 138 135 150 148 139
15 157 228 242 253 263 168 333 337 237 358 325 318 302 279 259 248 283 303 296 293 287 283 213 180 180 174 163 162 166 168 178 183 179 167 163 168 163 147 134 145 151 142 129
311 320 267 225 234 308 284 297 227 308 301 292 297 282 295 282 282 286 286 283 283 280 258 187 181 179 168 164 165 166 173 179 176 171 168 162 161 157 145 141 144 146 143 139
318 326 299 220 279 277 297 276 262 274 263 278 289 294 303 291 289 284 279 277 276 257 219 188 180 166 167 166 169 171 177 170 171 172 163 159 156 146 143 141 145 144 151 143
265 282 269 311 278 316 304 271 264 281 261 277 276 287 292 290 283 281 276 274 269 240 195 180 172 166 163 165 173 177 168 171 168 170 160 157 153 144 142 140 160 151 151 155
275 309 314 287 296 321 273 302 315 323 298 294 286 280 279 274 275 275 275 271 258 207 177 178 176 170 162 165 172 167 170 167 170 165 161 160 143 149 139 141 158 159 170 158
249 325 318 313 315 307 296 311 317 313 308 304 306 310 310 302 299 283 269 256 234 189 168 176 175 169 161 168 169 168 169 169 165 163 166 163 155 146 147 148 135 37 32 116